| time (UTC) | temp F | wind direction | speed MPH | gust MPH | rain 1hr in | rain 24hr in | rain mn in | humidity % | barometer mb |
| 20260510104533 | 62 | 0 | 0.0 | 0.0 | 0.00 | 0.00 | 0.00 | 97 | 1016.0 |
| 20260510103038 | 62 | 0 | 0.0 | 0.0 | 0.00 | 0.00 | 0.00 | 97 | 1015.8 |
| 20260510101537 | 62 | 0 | 0.0 | 0.0 | 0.00 | 0.00 | 0.00 | 97 | 1015.6 |
| 20260510100050 | 62 | 0 | 0.0 | 1.0 | 0.00 | 0.00 | 0.00 | 97 | 1015.6 |
| 20260510094537 | 63 | 0 | 0.0 | 0.0 | 0.00 | 0.00 | 0.00 | 97 | 1015.3 |
| 20260510093039 | 63 | 0 | 0.0 | 0.0 | 0.00 | 0.00 | 0.00 | 97 | 1015.1 |
| 20260510091538 | 63 | 0 | 0.0 | 0.0 | 0.00 | 0.00 | 0.00 | 97 | 1014.9 |
| 20260510090038 | 63 | 0 | 0.0 | 0.0 | 0.00 | 0.00 | 0.00 | 97 | 1014.7 |
| 20260510084539 | 63 | 0 | 0.0 | 0.0 | 0.00 | 0.04 | 0.00 | 97 | 1014.5 |
| 20260510083043 | 63 | 0 | 0.0 | 0.0 | 0.00 | 0.04 | 0.00 | 97 | 1014.4 |
| 20260510081539 | 63 | 0 | 0.0 | 0.0 | 0.00 | 0.04 | 0.00 | 96 | 1014.4 |
| 20260510080039 | 63 | 0 | 0.0 | 0.0 | 0.00 | 0.04 | 0.00 | 96 | 1014.2 |
| 20260510074543 | 63 | 0 | 0.0 | 0.0 | 0.00 | 0.04 | 0.00 | 96 | 1014.3 |
| 20260510073037 | 63 | 0 | 0.0 | 0.0 | 0.00 | 0.04 | 0.00 | 96 | 1014.2 |
| 20260510071542 | 63 | 0 | 0.0 | 0.0 | 0.00 | 0.04 | 0.00 | 96 | 1014.4 |
| 20260510070052 | 63 | 0 | 0.0 | 0.0 | 0.00 | 0.04 | 0.00 | 96 | 1014.4 |
| 20260510064543 | 63 | 0 | 0.0 | 0.0 | 0.00 | 0.04 | 0.00 | 96 | 1014.5 |
| 20260510063042 | 63 | 0 | 0.0 | 0.0 | 0.00 | 0.04 | 0.00 | 96 | 1014.8 |
| 20260510061538 | 63 | 0 | 0.0 | 0.0 | 0.00 | 0.04 | 0.00 | 96 | 1014.9 |
| 20260510060042 | 63 | 0 | 0.0 | 0.0 | 0.00 | 0.04 | 0.00 | 96 | 1014.6 |
| 20260510054542 | 63 | 0 | 0.0 | 0.0 | 0.00 | 0.04 | 0.00 | 96 | 1014.9 |
| 20260510053036 | 63 | 0 | 0.0 | 0.0 | 0.00 | 0.04 | 0.00 | 96 | 1014.8 |
| 20260510051539 | 63 | 0 | 0.0 | 0.0 | 0.00 | 0.04 | 0.00 | 96 | 1014.9 |
| 20260510050035 | 63 | 0 | 0.0 | 0.0 | 0.00 | 0.04 | 0.00 | 95 | 1014.9 |
| 20260510044539 | 63 | 0 | 0.0 | 0.0 | 0.00 | 0.04 | 0.04 | 95 | 1015.0 |
| 20260510043037 | 63 | 0 | 0.0 | 0.0 | 0.00 | 0.04 | 0.04 | 95 | 1015.0 |
| 20260510041547 | 64 | 0 | 0.0 | 0.0 | 0.00 | 0.04 | 0.04 | 95 | 1015.1 |
| 20260510040038 | 64 | 0 | 0.0 | 0.0 | 0.00 | 0.04 | 0.04 | 95 | 1015.1 |
| 20260510034535 | 65 | 0 | 0.0 | 0.0 | 0.00 | 0.04 | 0.04 | 94 | 1015.3 |
| 20260510033048 | 65 | 0 | 0.0 | 0.0 | 0.00 | 0.04 | 0.04 | 94 | 1015.2 |
| 20260510031538 | 65 | 0 | 0.0 | 0.0 | 0.00 | 0.04 | 0.04 | 94 | 1015.3 |
| 20260510030038 | 65 | 0 | 0.0 | 0.0 | 0.00 | 0.04 | 0.04 | 93 | 1015.0 |
| 20260510024534 | 65 | 0 | 0.0 | 1.0 | 0.00 | 0.04 | 0.04 | 93 | 1015.1 |
| 20260510023039 | 66 | 0 | 0.0 | 0.0 | 0.00 | 0.04 | 0.04 | 93 | 1015.1 |
| 20260510021541 | 66 | 0 | 0.0 | 0.0 | 0.00 | 0.04 | 0.04 | 93 | 1014.8 |
| 20260510020059 | 66 | 0 | 0.0 | 0.0 | 0.00 | 0.04 | 0.04 | 92 | 1014.5 |
| 20260510014536 | 66 | 0 | 0.0 | 0.0 | 0.00 | 0.04 | 0.04 | 92 | 1014.4 |
| 20260510013039 | 66 | 0 | 0.0 | 0.0 | 0.00 | 0.04 | 0.04 | 91 | 1013.9 |
| 20260510011539 | 66 | 0 | 0.0 | 0.0 | 0.00 | 0.04 | 0.04 | 90 | 1013.7 |
| 20260510010036 | 67 | 0 | 0.0 | 0.0 | 0.00 | 0.04 | 0.04 | 90 | 1013.5 |
| 20260510004536 | 67 | 0 | 0.0 | 0.0 | 0.00 | 0.04 | 0.04 | 89 | 1013.2 |
| 20260510003042 | 68 | 0 | 0.0 | 1.0 | 0.00 | 0.04 | 0.04 | 89 | 1013.5 |
| 20260510001544 | 68 | 0 | 0.0 | 1.0 | 0.00 | 0.04 | 0.04 | 88 | 1013.3 |
| 20260510000048 | 68 | 0 | 0.0 | 0.0 | 0.00 | 0.04 | 0.04 | 88 | 1013.1 |
| 20260509234545 | 69 | 0 | 0.0 | 0.0 | 0.00 | 0.04 | 0.04 | 87 | 1012.8 |
| 20260509233034 | 69 | 0 | 0.0 | 0.0 | 0.00 | 0.04 | 0.04 | 86 | 1012.6 |
| 20260509231539 | 69 | 0 | 0.0 | 0.0 | 0.00 | 0.04 | 0.04 | 84 | 1012.5 |
| 20260509230039 | 70 | 0 | 0.0 | 0.0 | 0.00 | 0.04 | 0.04 | 83 | 1012.5 |
| 20260509224537 | 71 | 0 | 0.0 | 0.0 | 0.00 | 0.04 | 0.04 | 82 | 1012.2 |
| 20260509223032 | 71 | 0 | 0.0 | 0.0 | 0.00 | 0.04 | 0.04 | 81 | 1012.1 |
| 20260509221530 | 72 | 0 | 0.0 | 0.0 | 0.00 | 0.04 | 0.04 | 80 | 1012.0 |
| 20260509220052 | 72 | 0 | 0.0 | 0.0 | 0.00 | 0.04 | 0.04 | 80 | 1012.1 |
| 20260509214541 | 73 | 0 | 0.0 | 0.0 | 0.00 | 0.04 | 0.04 | 79 | 1012.0 |
| 20260509213039 | 73 | 0 | 0.0 | 0.0 | 0.00 | 0.04 | 0.04 | 79 | 1011.9 |
| 20260509211543 | 73 | 0 | 0.0 | 1.0 | 0.00 | 0.04 | 0.04 | 76 | 1011.9 |
| 20260509210039 | 74 | 0 | 0.0 | 0.0 | 0.00 | 0.04 | 0.04 | 77 | 1011.9 |
| 20260509204542 | 74 | 0 | 0.0 | 0.0 | 0.00 | 0.04 | 0.04 | 77 | 1011.8 |
| 20260509203037 | 74 | 159 | 0.0 | 1.0 | 0.00 | 0.04 | 0.04 | 76 | 1012.0 |
| 20260509201535 | 74 | 0 | 0.0 | 1.0 | 0.00 | 0.04 | 0.04 | 74 | 1011.8 |
| 20260509200039 | 75 | 199 | 0.0 | 1.0 | 0.00 | 0.04 | 0.04 | 75 | 1011.9 |
| 20260509194542 | 74 | 0 | 0.0 | 2.0 | 0.00 | 0.04 | 0.04 | 75 | 1012.1 |
| 20260509193043 | 75 | 0 | 0.0 | 2.0 | 0.00 | 0.04 | 0.04 | 74 | 1012.4 |
| 20260509191536 | 75 | 0 | 0.0 | 1.0 | 0.00 | 0.04 | 0.04 | 77 | 1012.5 |
| 20260509190036 | 74 | 0 | 0.0 | 3.0 | 0.00 | 0.04 | 0.04 | 78 | 1012.3 |
| 20260509184540 | 73 | 180 | 0.0 | 2.0 | 0.00 | 0.04 | 0.04 | 79 | 1012.6 |
| 20260509183039 | 71 | 156 | 0.0 | 3.0 | 0.00 | 0.04 | 0.04 | 82 | 1012.7 |
| 20260509181538 | 71 | 111 | 0.0 | 3.0 | 0.00 | 0.04 | 0.04 | 83 | 1013.0 |
| 20260509180038 | 70 | 0 | 0.0 | 2.0 | 0.00 | 0.04 | 0.04 | 84 | 1013.2 |
| 20260509174536 | 70 | 0 | 0.0 | 2.0 | 0.00 | 0.04 | 0.04 | 84 | 1013.4 |
| 20260509173045 | 68 | 0 | 0.0 | 1.0 | 0.00 | 0.04 | 0.04 | 86 | 1013.6 |
| 20260509171541 | 68 | 147 | 0.0 | 1.0 | 0.00 | 0.04 | 0.04 | 89 | 1013.7 |
| 20260509170038 | 67 | 0 | 0.0 | 1.0 | 0.00 | 0.04 | 0.04 | 91 | 1013.5 |
| 20260509164539 | 66 | 0 | 0.0 | 1.0 | 0.00 | 0.04 | 0.04 | 92 | 1013.5 |
| 20260509163034 | 65 | 0 | 0.0 | 1.0 | 0.00 | 0.04 | 0.04 | 94 | 1013.9 |
| 20260509161533 | 64 | 0 | 0.0 | 1.0 | 0.00 | 0.04 | 0.04 | 95 | 1014.0 |
| 20260509160039 | 64 | 0 | 0.0 | 0.0 | 0.00 | 0.04 | 0.04 | 96 | 1014.0 |
| 20260509154541 | 64 | 0 | 0.0 | 1.0 | 0.00 | 0.04 | 0.04 | 96 | 1014.0 |
| 20260509153036 | 63 | 0 | 0.0 | 1.0 | 0.00 | 0.04 | 0.04 | 97 | 1014.0 |
| 20260509151535 | 63 | 0 | 0.0 | 0.0 | 0.00 | 0.04 | 0.04 | 97 | 1014.1 |
| 20260509150033 | 63 | 0 | 0.0 | 0.0 | 0.00 | 0.04 | 0.04 | 97 | 1013.9 |
| 20260509144558 | 62 | 0 | 0.0 | 0.0 | 0.00 | 0.04 | 0.04 | 97 | 1013.9 |
| 20260509143041 | 62 | 0 | 0.0 | 0.0 | 0.00 | 0.04 | 0.04 | 97 | 1013.9 |
| 20260509141540 | 62 | 0 | 0.0 | 0.0 | 0.00 | 0.04 | 0.04 | 97 | 1014.0 |
| 20260509140054 | 61 | 0 | 0.0 | 0.0 | 0.00 | 0.04 | 0.04 | 97 | 1014.0 |
| 20260509134534 | 61 | 0 | 0.0 | 0.0 | 0.00 | 0.04 | 0.04 | 97 | 1013.9 |
| 20260509133040 | 61 | 0 | 0.0 | 0.0 | 0.00 | 0.04 | 0.04 | 97 | 1013.8 |
| 20260509131549 | 61 | 0 | 0.0 | 1.0 | 0.00 | 0.04 | 0.04 | 97 | 1013.5 |
| 20260509130038 | 61 | 0 | 0.0 | 1.0 | 0.00 | 0.04 | 0.04 | 96 | 1013.1 |
| 20260509124542 | 61 | 0 | 0.0 | 0.0 | 0.00 | 0.04 | 0.04 | 96 | 1012.9 |
| 20260509123032 | 61 | 0 | 0.0 | 0.0 | 0.00 | 0.04 | 0.04 | 96 | 1012.8 |
| 20260509121551 | 61 | 0 | 0.0 | 0.0 | 0.00 | 0.04 | 0.04 | 96 | 1013.0 |
| 20260509120038 | 61 | 0 | 0.0 | 0.0 | 0.00 | 0.04 | 0.04 | 96 | 1012.8 |
| 20260509114539 | 60 | 0 | 0.0 | 0.0 | 0.00 | 0.04 | 0.04 | 96 | 1012.7 |
| 20260509113034 | 60 | 0 | 0.0 | 0.0 | 0.00 | 0.04 | 0.04 | 96 | 1013.0 |
| 20260509111535 | 60 | 0 | 0.0 | 0.0 | 0.00 | 0.04 | 0.04 | 96 | 1012.9 |
| 20260509110038 | 60 | 0 | 0.0 | 1.0 | 0.00 | 0.04 | 0.04 | 96 | 1012.6 |